Retour au catalogue

ONEWEB-0232

ActifCommunicationsPO
NORAD 48781·PAYLOAD·🇬🇧 United Kingdom

Lancé May 28, 2021 depuis Vostochny Cosmodrome

Loading…

Prochains Passages (prochaines 24 heures)

TLE

FraisSource: CelesTrak SupGP

Époque: Sep 14, 2026, 19:48 UTC

1 48781C 21045Q   26257.82517778  .00002689  00000+0  71512-2 0  2576
2 48781  87.8986 241.3185 0001968  85.7672 311.5916 13.15541423    15

Suivez ONEWEB-0232 en temps réel avec AllMySat

Download on the App Store